TimeEDT,TemperatureF,Dew PointF,Humidity,Sea Level PressureIn,VisibilityMPH,Wind Direction,Wind SpeedMPH,Gust SpeedMPH,PrecipitationIn,Events,Conditions,WindDirDegrees,DateUTC
12:58 AM,74.3,74.1,99,30.14,10.0,North,1.2,-,N/A,,Scattered Clouds,10,2013-08-25 04:58:00
1:58 AM,75.2,75.0,99,30.12,6.0,WSW,2.3,-,N/A,,Mostly Cloudy,250,2013-08-25 05:58:00
2:58 AM,72.9,72.9,100,30.11,10.0,North,2.3,-,N/A,,Clear,10,2013-08-25 06:58:00
3:58 AM,73.4,73.4,100,30.12,10.0,NW,1.2,-,N/A,,Overcast,320,2013-08-25 07:58:00
4:58 AM,74.1,74.1,100,30.11,10.0,NNE,3.5,-,N/A,,Overcast,20,2013-08-25 08:58:00
5:58 AM,75.2,75.2,100,30.12,10.0,Calm,Calm,-,N/A,,Overcast,0,2013-08-25 09:58:00
6:58 AM,75.9,75.9,100,30.14,10.0,NNE,3.5,-,N/A,,Overcast,20,2013-08-25 10:58:00
7:58 AM,77.4,77.4,100,30.15,10.0,North,1.2,-,N/A,,Overcast,10,2013-08-25 11:58:00
8:58 AM,80.1,79.2,97,30.16,7.0,NE,4.6,-,N/A,,Mostly Cloudy,50,2013-08-25 12:58:00
9:48 AM,82.4,78.8,89,30.16,1.8,ENE,9.2,-,N/A,,Haze,60,2013-08-25 13:48:00
9:58 AM,83.3,77.4,82,30.18,1.5,ENE,10.4,-,N/A,,Haze,70,2013-08-25 13:58:00
10:18 AM,84.2,77.0,79,30.17,1.0,ENE,10.4,-,N/A,,Haze,70,2013-08-25 14:18:00
10:23 AM,84.2,77.0,79,30.17,1.2,ENE,9.2,-,N/A,,Haze,60,2013-08-25 14:23:00
10:33 AM,84.2,77.0,79,30.17,1.2,ENE,9.2,-,N/A,,Haze,60,2013-08-25 14:33:00
10:38 AM,84.2,77.0,79,30.17,1.2,ENE,10.4,-,N/A,,Haze,60,2013-08-25 14:38:00
10:48 AM,86.0,77.0,74,30.17,1.0,ENE,8.1,-,N/A,,Haze,60,2013-08-25 14:48:00
10:58 AM,85.6,76.5,74,30.18,1.2,ENE,8.1,-,N/A,,Haze,70,2013-08-25 14:58:00
11:13 AM,86.0,75.2,70,30.17,1.8,East,10.4,-,N/A,,Haze,80,2013-08-25 15:13:00
11:18 AM,84.2,75.2,74,30.17,5.0,ENE,8.1,-,N/A,,Haze,70,2013-08-25 15:18:00
11:58 AM,84.2,74.1,72,30.18,10.0,ENE,9.2,-,N/A,,Mostly Cloudy,60,2013-08-25 15:58:00
12:58 PM,85.3,75.4,72,30.17,10.0,Variable,5.8,-,N/A,,Mostly Cloudy,0,2013-08-25 16:58:00
1:58 PM,86.4,73.4,65,30.16,10.0,NE,8.1,-,N/A,,Mostly Cloudy,50,2013-08-25 17:58:00
2:26 PM,80.6,75.2,84,30.14,10.0,NNE,6.9,-,N/A,Rain,Light Rain,30,2013-08-25 18:26:00
2:52 PM,80.6,75.2,84,30.13,10.0,NE,8.1,-,N/A,,Partly Cloudy,50,2013-08-25 18:52:00
2:58 PM,81.0,76.1,85,30.14,10.0,ENE,8.1,-,0.00,,Scattered Clouds,60,2013-08-25 18:58:00
3:58 PM,81.1,74.8,81,30.13,10.0,ENE,8.1,-,N/A,,Partly Cloudy,60,2013-08-25 19:58:00
4:58 PM,81.1,73.6,78,30.11,10.0,NE,8.1,-,N/A,,Partly Cloudy,50,2013-08-25 20:58:00
5:58 PM,81.3,74.7,80,30.12,10.0,NE,6.9,-,N/A,,Clear,50,2013-08-25 21:58:00
6:58 PM,81.7,74.1,78,30.13,10.0,NE,6.9,-,N/A,,Scattered Clouds,50,2013-08-25 22:58:00
7:58 PM,78.8,75.2,89,30.14,10.0,North,2.3,-,N/A,,Overcast,360,2013-08-25 23:58:00
8:03 PM,77.0,75.2,94,30.13,10.0,North,2.3,-,N/A,,Overcast,360,2013-08-26 00:03:00
8:58 PM,77.4,74.8,92,30.15,10.0,North,1.2,-,N/A,,Mostly Cloudy,360,2013-08-26 00:58:00
9:58 PM,76.1,74.7,95,30.15,10.0,NNW,3.5,-,N/A,,Clear,340,2013-08-26 01:58:00
10:58 PM,75.7,75.2,98,30.16,10.0,NNW,2.3,-,N/A,,Clear,340,2013-08-26 02:58:00
11:58 PM,75.4,75.2,99,30.16,10.0,North,3.5,-,N/A,,Mostly Cloudy,350,2013-08-26 03:58:00